EW9119 Weather Reports


time (UTC)temp
C
wind
direction
speed
KPH
gust
KPH
rain 1hr
cm
rain 24hr
cm
rain mn
cm
humidity
%
barometer
mb
20260903001525 28 179 0.0 0.0 0.00 0.00 0.00 67 1014.4
20260903000032 29 179 0.0 0.0 0.00 0.00 0.00 66 1014.2
20260902234527 30 179 0.0 0.0 0.00 0.00 0.00 65 1014.1
20260902233024 30 179 0.0 0.0 0.00 0.00 0.00 64 1013.9
20260902231525 31 179 0.0 0.0 0.00 0.00 0.00 62 1013.9
20260902230022 31 179 0.0 0.0 0.00 0.00 0.00 60 1013.9
20260902224522 32 179 0.0 0.0 0.00 0.00 0.00 57 1013.7
20260902223032 32 179 0.0 0.0 0.00 0.00 0.00 55 1013.7
20260902221519 33 179 0.0 0.0 0.00 0.00 0.00 52 1013.7
20260902220009 33 179 0.0 0.0 0.00 0.00 0.00 52 1013.9
20260902214505 33 179 0.0 0.0 0.00 0.00 0.00 49 1013.8
20260902213101 33 218 0.0 0.0 0.00 0.00 0.00 49 1013.8
20260902211557 34 299 0.0 0.0 0.00 0.00 0.00 48 1013.7
20260902210052 34 126 0.0 0.0 0.00 0.00 0.00 44 1013.7
20260902204617 35 159 0.0 0.0 0.00 0.00 0.00 44 1013.7
20260902203042 35 125 0.0 0.0 0.00 0.00 0.00 46 1013.9
20260902201540 35 113 0.0 0.0 0.00 0.00 0.00 44 1013.9
20260902200034 34 126 0.0 0.0 0.00 0.00 0.00 45 1014.1
20260902194530 35 101 0.0 0.0 0.00 0.00 0.00 44 1014.3
20260902193026 35 330 0.0 0.0 0.00 0.00 0.00 43 1014.5
20260902191521 35 38 0.0 0.0 0.00 0.00 0.00 46 1014.7
20260902190017 34 147 0.0 0.0 0.00 0.00 0.00 44 1014.8
20260902184511 34 119 0.0 0.0 0.00 0.00 0.00 46 1014.9
20260902183025 35 338 0.0 0.0 0.00 0.00 0.00 44 1015.0
20260902181503 35 317 0.0 0.0 0.00 0.00 0.00 45 1015.1
20260902180059 34 103 0.0 1.6 0.00 0.00 0.00 44 1015.2
20260902174558 35 333 0.0 0.0 0.00 0.00 0.00 45 1015.4
20260902173058 35 74 0.0 0.0 0.00 0.00 0.00 45 1015.5
20260902171548 33 315 0.0 0.0 0.00 0.00 0.00 47 1015.7
20260902170048 35 19 0.0 0.0 0.00 0.00 0.00 44 1015.8
20260902164542 34 321 0.0 0.0 0.00 0.00 0.00 47 1016.1
20260902163041 34 348 0.0 0.0 0.00 0.00 0.00 46 1016.3
20260902161528 33 116 0.0 0.0 0.00 0.00 0.00 49 1016.3
20260902160024 33 310 0.0 0.0 0.00 0.00 0.00 50 1016.4
20260902154520 32 305 0.0 0.0 0.00 0.00 0.00 51 1016.5
20260902153015 33 71 0.0 0.0 0.00 0.00 0.00 54 1016.5
20260902151510 32 99 0.0 0.0 0.00 0.00 0.00 53 1016.6
20260902150007 32 269 0.0 0.0 0.00 0.00 0.00 55 1016.6
20260902144501 31 327 0.0 0.0 0.00 0.00 0.00 58 1016.6
20260902143058 31 327 0.0 0.0 0.00 0.00 0.00 58 1016.5
20260902141553 31 305 0.0 0.0 0.00 0.00 0.00 63 1016.4
20260902140052 30 315 0.0 0.0 0.00 0.00 0.00 63 1016.3
20260902134547 29 314 0.0 0.0 0.00 0.00 0.00 64 1016.4
20260902133040 28 318 0.0 0.0 0.00 0.00 0.00 67 1016.5
20260902131535 27 318 0.0 0.0 0.00 0.00 0.00 67 1016.6
20260902130031 26 302 0.0 0.0 0.00 0.00 0.00 60 1016.8
20260902124526 25 302 0.0 0.0 0.00 0.00 0.00 16 1016.8
20260902123022 23 302 0.0 0.0 0.00 0.00 0.00 1 1016.8
20260902121517 22 302 0.0 0.0 0.00 0.00 0.00 1 1016.8
20260902120013 21 302 0.0 0.0 0.00 0.00 0.00 1 1016.8
20260902114510 21 302 0.0 0.0 0.00 0.00 0.00 1 1016.5
20260902113004 21 302 0.0 0.0 0.00 0.00 0.00 1 1016.4
20260902111501 21 302 0.0 0.0 0.00 0.00 0.00 1 1016.2
20260902110104 21 302 0.0 0.0 0.00 0.00 0.00 1 1016.2
20260902104610 21 302 0.0 0.0 0.00 0.00 0.00 1 1016.2
20260902103104 21 302 0.0 0.0 0.00 0.00 0.00 1 1016.1
20260902101546 21 302 0.0 0.0 0.00 0.00 0.00 1 1016.0
20260902100039 21 302 0.0 0.0 0.00 0.00 0.00 1 1016.0
20260902094536 21 302 0.0 0.0 0.00 0.00 0.00 1 1015.8
20260902093030 21 302 0.0 0.0 0.00 0.00 0.00 1 1015.8
20260902091526 21 302 0.0 0.0 0.00 0.00 0.00 1 1015.9
20260902090027 21 302 0.0 0.0 0.00 0.00 0.00 1 1015.8
20260902084521 21 302 0.0 0.0 0.00 0.00 0.00 1 1015.7
20260902083012 22 302 0.0 0.0 0.00 0.00 0.00 1 1015.6
20260902081509 22 302 0.0 0.0 0.00 0.00 0.00 1 1015.5
20260902080005 22 302 0.0 0.0 0.00 0.00 0.00 1 1015.6
20260902074600 22 302 0.0 0.0 0.00 0.00 0.00 1 1015.6
20260902073054 22 302 0.0 0.0 0.00 0.00 0.00 1 1015.6
20260902071550 22 302 0.0 0.0 0.00 0.00 0.00 1 1015.7
20260902070046 22 302 0.0 0.0 0.00 0.00 0.00 1 1015.7
20260902064544 22 302 0.0 0.0 0.00 0.00 0.00 1 1015.7
20260902063052 23 302 0.0 0.0 0.00 0.00 0.00 1 1015.7
20260902061556 23 302 0.0 0.0 0.00 0.00 0.00 1 1015.6
20260902060038 23 302 0.0 0.0 0.00 0.00 0.00 5 1015.6
20260902054528 23 302 0.0 0.0 0.00 0.00 0.00 11 1015.4
20260902053024 23 302 0.0 0.0 0.00 0.00 0.00 13 1015.3
20260902051522 23 302 0.0 0.0 0.00 0.00 0.00 17 1015.3
20260902050021 23 302 0.0 0.0 0.00 0.00 0.00 31 1015.1
20260902044524 23 302 0.0 0.0 0.00 0.00 0.00 37 1015.0
20260902043012 23 302 0.0 0.0 0.00 0.00 0.00 43 1014.9
20260902041509 23 302 0.0 0.0 0.00 0.00 0.00 50 1015.0
20260902040009 23 302 0.0 0.0 0.00 0.00 0.00 50 1015.1
20260902034502 24 302 0.0 0.0 0.00 0.00 0.00 54 1015.0
20260902033057 24 302 0.0 0.0 0.00 0.00 0.00 56 1015.0
20260902031600 24 302 0.0 0.0 0.00 0.00 0.00 62 1014.8
20260902030052 24 302 0.0 0.0 0.00 0.00 0.00 63 1014.8
20260902024552 25 302 0.0 0.0 0.00 0.00 0.00 66 1014.8
20260902023044 25 302 0.0 0.0 0.00 0.00 0.00 68 1014.8
20260902021538 25 302 0.0 0.0 0.00 0.00 0.00 69 1014.7
20260902020039 25 302 0.0 0.0 0.00 0.00 0.00 70 1014.6
20260902014537 26 302 0.0 0.0 0.00 0.00 0.00 70 1014.4
20260902013030 26 302 0.0 0.0 0.00 0.00 0.00 70 1014.2
20260902011529 26 302 0.0 0.0 0.00 0.00 0.00 69 1014.1
20260902010022 27 302 0.0 0.0 0.00 0.00 0.00 68 1014.0
20260902004518 27 302 0.0 0.0 0.00 0.00 0.00 67 1013.8
20260902003013 28 302 0.0 0.0 0.00 0.00 0.00 66 1013.8